Location: Middelsbur
(53.6609°N, 7.5020°E)
Time: 23:51:18
(UTC+00:00)

GEOS 3 Rocket - Pass Details

Date: 06 July 2020
Orbit: 771 x 848 km, 115.0° (Epoch: 14 August)

Event Time Altitude Azimuth Distance (km) Brightness Sun altitude
Rises 22:08:53 0° 46° (NE) 3,403 7.2 -11.5°
Reaches altitude 10° 22:11:13 10° 43° (NE) 2,472 6.5 -11.7°
Maximum altitude 22:16:33 65° 323° (NW) 931 4.2 -11.9°
Drops below altitude 10° 22:21:54 10° 243° (WSW) 2,473 6.0 -12.2°
Sets 22:24:14 0° 240° (WSW) 3,404 6.7 -12.3°
